Regional Weather Roundup
Issued by NWS New Orleans/Baton Rouge, LA

Home | Current Version | Previous Version | Text Only | Print | Product List | Glossary On
Versions: 1 2 3 4 5 6 7 8 9 10 11 12 13 14 15 16 17 18 19 20 21 22 23 24 25 26 27 28 29 30 31 32 33 34 35 36 37 38 39 40 41 42 43 44 45 46 47 48 49 50
000
ASUS44 KLIX 260910
RWRLIX
NEW ORLEANS REGIONAL WEATHER ROUNDUP
NATIONAL WEATHER SERVICE NEW ORLEANS LA
400 AM CDT SUN OCT 26 2014

NOTE: "FAIR" INDICATES FEW OR NO CLOUDS BELOW 12,000 FEET WITH NO
      SIGNIFICANT WEATHER AND/OR OBSTRUCTIONS TO VISIBILITY.
      SKY/WX - SKY CONDITION AND SIGNIFICANT WEATHER.
      TMP - AIR TEMPERATURE.     DP    - DEWPOINT TEMPERATURE.
      RH  - RELATIVE HUMIDITY.   PRES  - PRESSURE.
      HI  - HEAT INDEX.          WCI   - WIND CHILL INDEX.

*  THESE STATIONS ARE NOT NWS OR FAA STATIONS AND ARE NOT UNDER
   NWS QUALITY CONTROL.

LAZ038-040-048-061>063-065>067-069-261000-
SOUTHEAST LOUISIANA

CITY           SKY/WX    TMP DP  RH WIND       PRES   REMARKS
N.O. AUDUBON   NOT AVBL
N.O. INTL ARPT CLEAR     62  58  86 CALM      30.04F
N.O. LAKEFRONT CLEAR     70  62  76 N5        30.04F
N.O. DOWNTOWN*   N/A     70  57  64 CALM      30.04F
SLIDELL        CLEAR     55  52  89 CALM      30.03F
BATON ROUGE    CLEAR     55  53  93 CALM      30.05S
BOOTHVILLE     CLEAR     65  63  93 CALM      30.04S
BELLE CHASSE   CLEAR     56  53  90 CALM      30.04S
BOGALUSA*        N/A     55  51  88 CALM      30.05F
NEW ROADS*       N/A     54  53  97 CALM      30.05F
GONZALES*        N/A     54  54 100 CALM      30.05S
HAMMOND*       CLEAR     55  52  88 CALM      30.06S
HOUMA*         FOG       56  56 100 CALM      30.05S VSB 1/4
PORT FOURCHON* SUNNY     66  61  82 NW8       30.07F

$$

MSZ070-080>082-261000-
SOUTHERN MISSISSIPPI

CITY           SKY/WX    TMP DP  RH WIND       PRES   REMARKS
MCCOMB         CLEAR     56  53  90 CALM      30.05S
GULFPORT       CLEAR     58  56  93 CALM      30.03S
BILOXI         CLEAR     61  59  93 NW3       30.03F
PASCAGOULA     FOG       51  51 100 CALM      30.03S VSB 1/2

$$

COASTAL OBSERVATIONS
LAKE AND NEARSHORE STATIONS

STATION/POSITION TIME  TEMP    WIND        PRES    WAVE
                       AIR SEA DIR/SP/G            HT/PER
                 (UTC) (F)     (DEG/KT/KT) (MB)    (FT/S)
PASCAGOULA       0900   62     360/  7/  7 1016.1
WAVELAND YACHT   0900   65     330/  2/  3 1016.1
GRAND ISLE       0900   70 72   10/  6/  9 1017.6
SOUTHWEST PASS   0900   70 80              1017.2
NEW CANAL        0900   70 70  330/  1/  3 1017.5
SHELL BEACH      0900   70 67  340/  5/  6 1016.8

OFFSHORE STATIONS

STATION/POSITION TIME  TEMP    WIND        PRES    WAVE
                       AIR SEA DIR/SP/G            HT/PER
                 (UTC) (F)     (DEG/KT/KT) (MB)    (FT/S)
64 S DAUPHIN ISL 0801   74 78   10/  8/ 10 1017.1    2/ 4

$$




USA.gov is the U.S. government's official web portal to all federal, state and local government web resources and services.